FW2977 Weather Reports


Display with metric or nautical units.
time (UTC)temp
F
wind
direction
speed
MPH
gust
MPH
rain 1hr
in
rain 24hr
in
rain mn
in
humidity
%
barometer
mb
20260506131540 54 118 6.0 9.0 0.11 0.20 0.16 93 953.7
20260506130040 54 80 8.0 14.0 0.08 0.17 0.13 93 953.6
20260506124539 54 107 7.0 11.0 0.05 0.13 0.09 93 953.7
20260506123036 54 109 8.0 13.0 0.03 0.11 0.07 93 953.3
20260506121535 54 92 8.0 13.0 0.01 0.09 0.05 93 953.3
20260506120050 53 92 6.0 9.0 0.02 0.09 0.05 93 953.3
20260506114534 53 111 6.0 9.0 0.01 0.09 0.04 93 953.5
20260506113033 53 94 4.0 9.0 0.02 0.09 0.04 92 953.6
20260506111531 53 106 6.0 12.0 0.03 0.09 0.04 92 953.6
20260506110030 54 66 6.0 10.0 0.02 0.08 0.03 92 953.7
20260506104537 54 101 6.0 9.0 0.02 0.08 0.03 92 953.9
20260506103038 54 113 3.0 7.0 0.01 0.07 0.02 91 953.7
20260506101525 53 90 4.0 6.0 0.01 0.06 0.01 90 953.5
20260506100024 54 119 3.0 4.0 0.01 0.06 0.01 89 953.4
20260506094522 53 186 0.0 3.0 0.01 0.06 0.01 90 953.2
20260506093022 53 106 2.0 6.0 0.01 0.06 0.01 91 953.3
20260506091519 53 163 1.0 7.0 0.00 0.05 0.00 92 953.4
20260506090016 52 141 3.0 4.0 0.00 0.05 0.00 93 953.4
20260506084525 50 128 0.0 3.0 0.00 0.05 0.00 92 953.7
20260506083011 50 269 0.0 1.0 0.00 0.05 0.00 91 953.8
20260506081511 50 269 0.0 3.0 0.00 0.05 0.00 91 953.9
20260506073006 51 24 0.0 5.0 0.00 0.05 0.00 90 953.6
20260506071507 51 290 1.0 3.0 0.00 0.05 0.00 90 953.7
20260506061600 51 51 1.0 11.0 0.00 0.05 0.00 89 954.4
20260506044549 52 30 2.0 6.0 0.00 0.05 0.00 88 955.6
20260506043048 52 27 3.0 8.0 0.00 0.05 0.00 88 955.4
20260506041546 52 26 4.0 6.0 0.00 0.05 0.00 88 955.5
20260506040038 52 26 1.0 3.0 0.00 0.05 0.00 89 955.7
20260506034535 52 273 0.0 4.0 0.00 0.05 0.05 89 956.1
20260506033032 53 360 0.0 5.0 0.00 0.05 0.05 90 956.0
20260506031539 54 244 1.0 3.0 0.00 0.05 0.05 90 955.8
20260506030029 54 298 1.0 5.0 0.00 0.05 0.05 90 955.9
20260506024525 55 275 0.0 3.0 0.00 0.05 0.05 91 955.7
20260506023038 56 273 2.0 5.0 0.00 0.05 0.05 91 955.8
20260506021623 56 266 2.0 4.0 0.00 0.05 0.05 91 955.6
20260506020024 57 264 1.0 3.0 0.00 0.05 0.05 91 955.5
20260506014519 57 256 0.0 3.0 0.00 0.05 0.05 91 955.4
20260506013018 58 247 0.0 1.0 0.00 0.05 0.05 90 955.4
20260506011513 60 248 1.0 4.0 0.00 0.05 0.05 88 955.1
20260506010014 61 138 0.0 4.0 0.00 0.05 0.05 84 954.9
20260506004512 61 138 1.0 4.0 0.00 0.05 0.05 81 954.7
20260506003014 61 168 1.0 5.0 0.00 0.05 0.05 81 954.3
20260506001509 61 155 1.0 5.0 0.00 0.05 0.05 81 954.3
20260506000009 61 157 1.0 6.0 0.00 0.05 0.05 83 954.1
20260505234509 61 174 0.0 3.0 0.00 0.05 0.05 83 954.1
20260505233008 61 166 1.0 5.0 0.00 0.05 0.05 84 954.2
20260505231509 61 167 0.0 2.0 0.00 0.05 0.05 84 954.0
20260505230011 61 167 0.0 2.0 0.00 0.05 0.05 85 954.2
20260505224508 61 166 0.0 7.0 0.00 0.05 0.05 84 954.0
20260505223006 62 183 1.0 7.0 0.00 0.05 0.05 82 953.9
20260505221505 62 175 3.0 8.0 0.00 0.05 0.05 79 954.0
20260505220004 62 115 0.0 8.0 0.00 0.05 0.05 81 953.5
20260505214504 64 119 3.0 7.0 0.00 0.05 0.05 81 953.5
20260505213014 64 175 0.0 3.0 0.00 0.05 0.05 80 953.3
20260505211508 62 124 2.0 4.0 0.00 0.05 0.05 83 953.3
20260505210002 62 115 3.0 4.0 0.01 0.05 0.05 84 953.5
20260505204600 61 243 2.0 4.0 0.03 0.05 0.05 84 953.5
20260505203122 60 259 1.0 2.0 0.03 0.05 0.05 88 953.8
20260505201605 60 259 1.0 6.0 0.03 0.05 0.05 88 953.7
20260505200058 62 250 5.0 17.0 0.03 0.05 0.05 81 953.7
20260505194555 72 227 5.0 20.0 0.00 0.02 0.02 47 952.7
20260505193054 73 157 10.0 21.0 0.00 0.02 0.02 45 951.9
20260505191605 75 150 9.0 18.0 0.00 0.02 0.02 45 951.8
20260505190055 74 163 6.0 19.0 0.00 0.02 0.02 45 951.9
20260505184550 74 124 6.0 19.0 0.00 0.02 0.02 48 952.2
20260505183048 73 163 6.0 17.0 0.00 0.02 0.02 53 952.6
20260505181549 70 219 2.0 15.0 0.00 0.02 0.02 64 952.9
20260505180050 70 180 1.0 5.0 0.00 0.02 0.02 60 953.3
20260505174547 69 152 2.0 9.0 0.00 0.02 0.02 65 953.4
20260505173044 72 219 3.0 15.0 0.00 0.02 0.02 52 953.4
20260505171547 73 202 8.0 16.0 0.00 0.02 0.02 50 953.4
20260505164543 73 160 6.0 16.0 0.00 0.02 0.02 51 953.1
20260505163044 73 120 7.0 22.0 0.00 0.02 0.02 49 953.3
20260505161540 76 129 10.0 19.0 0.00 0.02 0.02 49 953.7
20260505153036 74 180 7.0 25.0 0.01 0.02 0.02 49 953.6
20260505151549 73 179 8.0 20.0 0.01 0.02 0.02 48 953.7